Date,TemperatureHighF,TemperatureAvgF,TemperatureLowF,DewpointHighF,DewpointAvgF,DewpointLowF,HumidityHigh,HumidityAvg,HumidityLow,PressureMaxIn,PressureMinIn,WindSpeedMaxMPH,WindSpeedAvgMPH,GustSpeedMaxMPH,PrecipitationSumIn
2013-2-1,19,14,9,7,0,-4,60,53,47,29.39,28.95,13,3,14,0.00
2013-2-2,30,23,12,23,15,-2,79,70,54,29.34,28.95,13,2,13,0.00
2013-2-3,28,23,17,20,13,7,76,66,49,29.10,28.89,10,2,11,0.00
2013-2-4,32,26,15,27,18,8,85,73,48,29.10,28.83,11,1,11,0.00
2013-2-5,34,31,27,28,23,19,86,72,55,29.01,28.83,9,2,9,0.00
2013-2-6,36,31,24,27,18,12,76,58,43,29.34,29.01,9,1,10,0.00
2013-2-7,48,38,24,30,24,15,72,60,44,29.28,28.77,9,1,9,0.00
2013-2-8,42,34,26,37,25,14,88,69,55,29.34,28.77,13,3,15,0.00
2013-2-9,37,28,19,18,15,13,77,58,42,29.48,29.25,6,0,6,0.00
2013-2-10,50,40,25,40,24,13,77,53,38,29.28,28.77,15,2,15,0.00
2013-2-11,52,46,38,49,32,22,95,62,41,29.04,28.71,23,4,27,0.00
2013-2-12,46,38,31,26,22,19,66,53,40,29.13,28.89,11,2,11,0.00
2013-2-13,35,31,27,26,23,20,80,72,62,28.92,28.71,8,0,8,0.00
2013-2-14,47,36,26,37,29,21,97,78,63,28.98,28.80,14,2,14,0.00
2013-2-15,38,32,27,31,25,14,84,75,56,29.13,28.95,10,0,10,0.00
2013-2-16,32,24,17,21,13,2,78,62,49,29.13,28.98,11,2,11,0.00
2013-2-17,28,20,15,12,6,2,64,54,42,29.25,29.07,9,1,9,0.00
2013-2-18,50,36,15,37,19,6,75,51,40,29.25,28.71,23,3,28,0.00
2013-2-19,45,32,22,39,23,10,87,68,54,29.07,28.63,17,5,23,0.00
2013-2-20,26,22,18,14,10,6,70,58,47,29.28,29.07,12,3,12,0.00
2013-2-21,31,26,22,15,13,9,71,57,50,29.36,29.16,11,1,11,0.00
2013-2-22,42,34,28,39,29,14,97,82,56,29.16,28.89,11,2,11,0.00
2013-2-23,42,36,31,32,26,20,87,66,47,29.01,28.89,8,1,8,0.00
2013-2-24,38,33,29,21,19,17,70,58,46,29.19,28.92,9,1,9,0.00
2013-2-25,46,35,23,26,20,16,79,56,38,29.25,28.98,9,1,10,0.00
2013-2-26,44,40,34,43,33,19,98,78,49,28.98,28.42,11,3,14,0.00
2013-2-27,44,39,34,42,35,29,94,86,75,28.69,28.48,13,4,13,0.00
2013-2-28,39,36,33,36,31,27,90,81,72,28.92,28.63,12,2,12,0.00